Time,TemperatureF,DewpointF,PressureIn,WindDirection,WindDirectionDegrees,WindSpeedMPH,WindSpeedGustMPH,Humidity,HourlyPrecipIn,Conditions,Clouds,dailyrainin,SolarRadiationWatts/m^2,SoftwareType,DateUTC
2013-03-07 00:01:00,11.0,7.0,-100.00,SSW,198,0.0,3.0,85,0.00,,,0.03,1.000000,,2013-03-07 06:01:00,
2013-03-07 00:11:00,11.0,7.0,-100.00,SSW,198,0.0,3.0,85,0.00,,,0.03,1.000000,,2013-03-07 06:11:00,
2013-03-07 00:21:00,11.0,7.0,-100.00,SSW,198,0.0,3.0,85,0.00,,,0.03,1.000000,,2013-03-07 06:21:00,
2013-03-07 00:32:00,11.0,7.0,-100.00,SSW,198,0.0,3.0,85,0.00,,,0.03,1.000000,,2013-03-07 06:32:00,
2013-03-07 00:52:00,14.0,10.0,-100.00,SSE,147,0.0,2.0,85,0.00,,,0.03,1.000000,,2013-03-07 06:52:00,
2013-03-07 01:01:00,14.0,10.0,-100.00,SSE,147,0.0,2.0,85,0.00,,,0.03,1.000000,,2013-03-07 07:01:00,
2013-03-07 01:11:00,14.0,10.0,-100.00,SSE,147,0.0,2.0,85,0.00,,,0.03,1.000000,,2013-03-07 07:11:00,
2013-03-07 01:21:00,14.0,10.0,-100.00,SSE,147,0.0,2.0,85,0.00,,,0.03,1.000000,,2013-03-07 07:21:00,
2013-03-07 01:32:00,14.0,10.0,-100.00,SSE,147,0.0,2.0,85,0.00,,,0.03,1.000000,,2013-03-07 07:32:00,
2013-03-07 02:02:00,13.0,9.0,-100.00,SW,218,0.0,2.0,85,0.00,,,0.03,1.000000,,2013-03-07 08:02:00,
2013-03-07 02:12:00,13.0,9.0,-100.00,SW,218,0.0,2.0,85,0.00,,,0.03,1.000000,,2013-03-07 08:12:00,
2013-03-07 02:22:00,13.0,9.0,-100.00,SW,218,0.0,2.0,85,0.00,,,0.03,1.000000,,2013-03-07 08:22:00,
2013-03-07 02:33:00,13.0,9.0,-100.00,SW,218,0.0,2.0,85,0.00,,,0.03,1.000000,,2013-03-07 08:33:00,
2013-03-07 02:54:00,16.0,13.0,-100.00,WSW,248,1.0,2.0,88,0.00,,,0.03,1.000000,,2013-03-07 08:54:00,
2013-03-07 03:03:00,16.0,13.0,-100.00,WSW,248,1.0,2.0,88,0.00,,,0.03,1.000000,,2013-03-07 09:03:00,
2013-03-07 03:13:00,16.0,13.0,-100.00,WSW,248,1.0,2.0,88,0.00,,,0.03,1.000000,,2013-03-07 09:13:00,
2013-03-07 03:23:00,16.0,13.0,-100.00,WSW,248,1.0,2.0,88,0.00,,,0.03,1.000000,,2013-03-07 09:23:00,
2013-03-07 03:53:00,16.0,13.0,-100.00,ESE,118,0.0,2.0,86,0.00,,,0.03,1.000000,,2013-03-07 09:53:00,
2013-03-07 04:03:00,16.0,13.0,-100.00,ESE,118,0.0,2.0,86,0.00,,,0.03,1.000000,,2013-03-07 10:03:00,
2013-03-07 04:13:00,16.0,13.0,-100.00,ESE,118,0.0,2.0,86,0.00,,,0.03,1.000000,,2013-03-07 10:13:00,
2013-03-07 04:23:00,16.0,13.0,-100.00,ESE,118,0.0,2.0,86,0.00,,,0.03,1.000000,,2013-03-07 10:23:00,
2013-03-07 04:33:00,16.0,13.0,-100.00,ESE,118,0.0,2.0,86,0.00,,,0.03,1.000000,,2013-03-07 10:33:00,
2013-03-07 04:53:00,16.0,13.0,-100.00,SSE,168,0.0,2.0,87,0.00,,,0.03,1.000000,,2013-03-07 10:53:00,
2013-03-07 05:03:00,16.0,13.0,-100.00,SSE,168,0.0,2.0,87,0.00,,,0.03,1.000000,,2013-03-07 11:03:00,
2013-03-07 05:12:00,16.0,13.0,-100.00,SSE,168,0.0,2.0,87,0.00,,,0.03,1.000000,,2013-03-07 11:12:00,
2013-03-07 05:23:00,16.0,13.0,-100.00,SSE,168,0.0,2.0,87,0.00,,,0.03,1.000000,,2013-03-07 11:23:00,
2013-03-07 05:33:00,16.0,13.0,-100.00,SSE,168,0.0,2.0,87,0.00,,,0.03,1.000000,,2013-03-07 11:33:00,
2013-03-07 06:03:00,17.0,14.0,-100.00,West,263,0.0,2.0,88,0.00,,,0.03,1.000000,,2013-03-07 12:03:00,
2013-03-07 06:12:00,17.0,14.0,-100.00,West,263,0.0,2.0,88,0.00,,,0.03,1.000000,,2013-03-07 12:12:00,
2013-03-07 06:23:00,17.0,14.0,-100.00,West,263,0.0,2.0,88,0.00,,,0.03,1.000000,,2013-03-07 12:23:00,
2013-03-07 06:33:00,17.0,14.0,-100.00,West,263,0.0,2.0,88,0.00,,,0.03,1.000000,,2013-03-07 12:33:00,
2013-03-07 07:02:00,17.0,14.0,-100.00,WSW,258,0.0,2.0,87,0.00,,,0.03,1.000000,,2013-03-07 13:02:00,
2013-03-07 07:12:00,17.0,14.0,-100.00,WSW,258,0.0,2.0,87,0.00,,,0.03,1.000000,,2013-03-07 13:12:00,
2013-03-07 07:22:00,17.0,14.0,-100.00,WSW,258,0.0,2.0,87,0.00,,,0.03,1.000000,,2013-03-07 13:22:00,
2013-03-07 07:32:00,17.0,14.0,-100.00,WSW,258,0.0,2.0,87,0.00,,,0.03,1.000000,,2013-03-07 13:32:00,
2013-03-07 08:02:00,19.0,15.0,-100.00,NE,39,1.0,3.0,85,0.00,,,0.03,18.000000,,2013-03-07 14:02:00,
2013-03-07 08:12:00,19.0,15.0,-100.00,NE,39,1.0,3.0,85,0.00,,,0.03,18.000000,,2013-03-07 14:12:00,
2013-03-07 08:23:00,19.0,15.0,-100.00,NE,39,1.0,3.0,85,0.00,,,0.03,18.000000,,2013-03-07 14:23:00,
2013-03-07 08:33:00,19.0,15.0,-100.00,NE,39,1.0,3.0,85,0.00,,,0.03,18.000000,,2013-03-07 14:33:00,
2013-03-07 08:54:00,20.0,14.0,-100.00,NE,37,5.0,9.0,77,0.00,,,0.03,73.000000,,2013-03-07 14:54:00,
2013-03-07 09:03:00,20.0,14.0,-100.00,NE,37,5.0,9.0,77,0.00,,,0.03,73.000000,,2013-03-07 15:03:00,
2013-03-07 09:12:00,20.0,14.0,-100.00,NE,37,5.0,9.0,77,0.00,,,0.03,73.000000,,2013-03-07 15:12:00,
2013-03-07 09:23:00,20.0,14.0,-100.00,NE,37,5.0,9.0,77,0.00,,,0.03,73.000000,,2013-03-07 15:23:00,
2013-03-07 09:32:00,20.0,14.0,-100.00,NE,37,5.0,9.0,77,0.00,,,0.03,73.000000,,2013-03-07 15:32:00,
2013-03-07 10:02:00,22.0,13.0,-100.00,North,8,4.0,10.0,68,0.00,,,0.03,171.000000,,2013-03-07 16:02:00,
2013-03-07 10:12:00,22.0,13.0,-100.00,North,8,4.0,10.0,68,0.00,,,0.03,171.000000,,2013-03-07 16:12:00,
2013-03-07 10:32:00,22.0,13.0,-100.00,North,8,4.0,10.0,68,0.00,,,0.03,171.000000,,2013-03-07 16:32:00,
2013-03-07 10:53:00,23.0,13.0,-100.00,North,9,4.0,9.0,64,0.00,,,0.03,246.000000,,2013-03-07 16:53:00,
2013-03-07 11:02:00,23.0,13.0,-100.00,North,9,4.0,9.0,64,0.00,,,0.03,246.000000,,2013-03-07 17:02:00,
2013-03-07 11:12:00,23.0,13.0,-100.00,North,9,4.0,9.0,64,0.00,,,0.03,246.000000,,2013-03-07 17:12:00,
2013-03-07 11:22:00,23.0,13.0,-100.00,North,9,4.0,9.0,64,0.00,,,0.03,246.000000,,2013-03-07 17:22:00,
2013-03-07 11:32:00,23.0,13.0,-100.00,North,9,4.0,9.0,64,0.00,,,0.03,246.000000,,2013-03-07 17:32:00,
2013-03-07 12:03:00,26.0,13.0,-100.00,NE,36,4.0,7.0,58,0.00,,,0.03,346.000000,,2013-03-07 18:03:00,
2013-03-07 12:12:00,26.0,13.0,-100.00,NE,36,4.0,7.0,58,0.00,,,0.03,346.000000,,2013-03-07 18:12:00,
2013-03-07 12:22:00,26.0,13.0,-100.00,NE,36,4.0,7.0,58,0.00,,,0.03,346.000000,,2013-03-07 18:22:00,
2013-03-07 12:32:00,26.0,13.0,-100.00,NE,36,4.0,7.0,58,0.00,,,0.03,346.000000,,2013-03-07 18:32:00,
2013-03-07 13:03:00,31.0,15.0,-100.00,ENE,65,2.0,5.0,50,0.00,,,0.03,484.000000,,2013-03-07 19:03:00,
2013-03-07 13:12:00,31.0,15.0,-100.00,ENE,65,2.0,5.0,50,0.00,,,0.03,484.000000,,2013-03-07 19:12:00,
2013-03-07 13:34:00,31.0,15.0,-100.00,ENE,65,2.0,5.0,50,0.00,,,0.03,484.000000,,2013-03-07 19:34:00,
2013-03-07 13:53:00,35.0,16.0,-100.00,North,355,3.0,6.0,45,0.00,,,0.03,591.000000,,2013-03-07 19:53:00,
2013-03-07 14:02:00,35.0,16.0,-100.00,North,355,3.0,6.0,45,0.00,,,0.03,591.000000,,2013-03-07 20:02:00,
2013-03-07 14:13:00,35.0,16.0,-100.00,North,355,3.0,6.0,45,0.00,,,0.03,591.000000,,2013-03-07 20:13:00,
2013-03-07 14:22:00,35.0,16.0,-100.00,North,355,3.0,6.0,45,0.00,,,0.03,591.000000,,2013-03-07 20:22:00,
2013-03-07 14:33:00,35.0,16.0,-100.00,North,355,3.0,6.0,45,0.00,,,0.03,591.000000,,2013-03-07 20:33:00,
2013-03-07 15:03:00,39.0,16.0,-100.00,SE,141,1.0,3.0,39,0.00,,,0.01,541.000000,,2013-03-07 21:03:00,
2013-03-07 15:12:00,39.0,16.0,-100.00,SE,141,1.0,3.0,39,0.00,,,0.01,541.000000,,2013-03-07 21:12:00,
2013-03-07 15:22:00,39.0,16.0,-100.00,SE,141,1.0,3.0,39,0.00,,,0.01,541.000000,,2013-03-07 21:22:00,
2013-03-07 15:32:00,39.0,16.0,-100.00,SE,141,1.0,3.0,39,0.00,,,0.01,541.000000,,2013-03-07 21:32:00,
2013-03-07 16:02:00,37.0,15.0,-100.00,NNE,29,2.0,5.0,40,0.00,,,0.00,448.000000,,2013-03-07 22:02:00,
2013-03-07 16:12:00,37.0,15.0,-100.00,NNE,29,2.0,5.0,40,0.00,,,0.00,448.000000,,2013-03-07 22:12:00,
2013-03-07 16:22:00,37.0,15.0,-100.00,NNE,29,2.0,5.0,40,0.00,,,0.00,448.000000,,2013-03-07 22:22:00,
2013-03-07 16:32:00,37.0,15.0,-100.00,NNE,29,2.0,5.0,40,0.00,,,0.00,448.000000,,2013-03-07 22:32:00,
2013-03-07 16:54:00,33.0,14.0,-100.00,NNE,16,3.0,5.0,45,0.00,,,0.00,286.000000,,2013-03-07 22:54:00,
2013-03-07 17:03:00,33.0,14.0,-100.00,NNE,16,3.0,5.0,45,0.00,,,0.00,286.000000,,2013-03-07 23:03:00,
2013-03-07 17:13:00,33.0,14.0,-100.00,NNE,16,3.0,5.0,45,0.00,,,0.00,286.000000,,2013-03-07 23:13:00,
2013-03-07 17:22:00,33.0,14.0,-100.00,NNE,16,3.0,5.0,45,0.00,,,0.00,286.000000,,2013-03-07 23:22:00,
2013-03-07 17:33:00,33.0,14.0,-100.00,NNE,16,3.0,5.0,45,0.00,,,0.00,286.000000,,2013-03-07 23:33:00,
2013-03-07 18:04:00,26.0,12.0,-100.00,ENE,61,3.0,5.0,55,0.00,,,0.00,56.000000,,2013-03-08 00:04:00,
2013-03-07 18:13:00,26.0,12.0,-100.00,ENE,61,3.0,5.0,55,0.00,,,0.00,56.000000,,2013-03-08 00:13:00,
2013-03-07 18:23:00,26.0,12.0,-100.00,ENE,61,3.0,5.0,55,0.00,,,0.00,56.000000,,2013-03-08 00:23:00,
2013-03-07 18:34:00,26.0,12.0,-100.00,ENE,61,3.0,5.0,55,0.00,,,0.00,56.000000,,2013-03-08 00:34:00,
2013-03-07 19:02:00,20.0,12.0,-100.00,WSW,243,0.0,2.0,70,0.00,,,0.00,4.000000,,2013-03-08 01:02:00,
2013-03-07 19:11:00,20.0,12.0,-100.00,WSW,243,0.0,2.0,70,0.00,,,0.00,4.000000,,2013-03-08 01:11:00,
2013-03-07 19:21:00,20.0,12.0,-100.00,WSW,243,0.0,2.0,70,0.00,,,0.00,4.000000,,2013-03-08 01:21:00,
2013-03-07 19:32:00,20.0,12.0,-100.00,WSW,243,0.0,2.0,70,0.00,,,0.00,4.000000,,2013-03-08 01:32:00,
2013-03-07 20:01:00,16.0,10.0,-100.00,SW,215,0.0,0.0,78,0.00,,,0.00,1.000000,,2013-03-08 02:01:00,
2013-03-07 20:11:00,16.0,10.0,-100.00,SW,215,0.0,0.0,78,0.00,,,0.00,1.000000,,2013-03-08 02:11:00,
2013-03-07 20:22:00,16.0,10.0,-100.00,SW,215,0.0,0.0,78,0.00,,,0.00,1.000000,,2013-03-08 02:22:00,
2013-03-07 20:32:00,16.0,10.0,-100.00,SW,215,0.0,0.0,78,0.00,,,0.00,1.000000,,2013-03-08 02:32:00,
2013-03-07 21:02:00,12.0,8.0,-100.00,SW,217,1.0,2.0,82,0.00,,,0.00,1.000000,,2013-03-08 03:02:00,
2013-03-07 21:12:00,12.0,8.0,-100.00,SW,217,1.0,2.0,82,0.00,,,0.00,1.000000,,2013-03-08 03:12:00,
2013-03-07 21:22:00,12.0,8.0,-100.00,SW,217,1.0,2.0,82,0.00,,,0.00,1.000000,,2013-03-08 03:22:00,
2013-03-07 21:32:00,12.0,8.0,-100.00,SW,217,1.0,2.0,82,0.00,,,0.00,1.000000,,2013-03-08 03:32:00,
2013-03-07 21:53:00,9.0,5.0,-100.00,SW,224,0.0,2.0,84,0.00,,,0.00,1.000000,,2013-03-08 03:53:00,
2013-03-07 22:02:00,9.0,5.0,-100.00,SW,224,0.0,2.0,84,0.00,,,0.00,1.000000,,2013-03-08 04:02:00,
2013-03-07 22:11:00,9.0,5.0,-100.00,SW,224,0.0,2.0,84,0.00,,,0.00,1.000000,,2013-03-08 04:11:00,
2013-03-07 22:22:00,9.0,5.0,-100.00,SW,224,0.0,2.0,84,0.00,,,0.00,1.000000,,2013-03-08 04:22:00,
2013-03-07 22:32:00,9.0,5.0,-100.00,SW,224,0.0,2.0,84,0.00,,,0.00,1.000000,,2013-03-08 04:32:00,
2013-03-07 23:02:00,7.0,3.0,-100.00,SSW,207,1.0,2.0,83,0.00,,,0.00,1.000000,,2013-03-08 05:02:00,
2013-03-07 23:12:00,7.0,3.0,-100.00,SSW,207,1.0,2.0,83,0.00,,,0.00,1.000000,,2013-03-08 05:12:00,
2013-03-07 23:22:00,7.0,3.0,-100.00,SSW,207,1.0,2.0,83,0.00,,,0.00,1.000000,,2013-03-08 05:22:00,
2013-03-07 23:32:00,7.0,3.0,-100.00,SSW,207,1.0,2.0,83,0.00,,,0.00,1.000000,,2013-03-08 05:32:00,